Theta_e
317 317 317 317 317 317 317 317 317 317 318 318 318 319 319 319 319 320 320 320 320 320 320 320 320 320 319 318 318 318 318 315 311 311 308 310 320 325 332 334 335 338 350 340 336 329 323 326 329 338 339 338 334 332 338 339 340 338 327 323 319 321 320 326 325 327 333 332 334 335 338 335 332 339 341 345 341 341 340 339 342 343 342 344 345 347 346 347
317 317 317 317 317 316 317 317 317 317 318 318 318 318 319 319 319 319 319 320 320 319 319 320 320 320 318 318 318 319 317 313 311 310 309 320 327 331 337 336 340 340 345 333 325 321 319 321 328 336 336 332 333 332 337 333 339 330 328 325 319 323 325 330 331 332 332 333 336 336 339 337 336 339 341 335 335 337 335 337 339 338 341 344 345 345 345 345
317 316 316 316 316 316 316 316 317 317 317 317 318 318 318 318 318 318 319 319 319 319 319 319 320 321 319 318 318 321 316 313 313 313 319 334 332 330 338 341 343 344 334 329 325 321 317 322 328 334 334 328 331 330 332 331 334 333 328 321 324 330 330 333 334 334 335 339 335 335 337 337 340 340 344 336 333 335 333 332 335 334 335 338 342 343 344 344
316 316 316 316 316 316 316 316 317 317 317 317 317 317 318 318 318 318 318 318 319 319 319 319 321 321 318 318 319 319 316 312 312 319 326 341 333 334 339 343 342 345 332 327 322 319 322 327 329 331 326 327 327 330 327 331 328 332 328 323 326 331 327 331 338 339 337 340 337 336 339 337 340 340 340 337 332 333 337 337 335 334 336 338 340 341 342 342
316 316 316 316 316 316 316 317 316 317 317 317 317 317 317 318 317 318 318 318 318 319 319 319 321 322 319 319 319 319 311 309 311 323 329 343 335 336 340 346 344 338 330 320 321 320 325 325 325 324 326 323 325 326 326 330 333 328 328 331 331 332 328 333 334 340 339 342 338 337 334 334 344 342 338 336 331 331 335 338 340 339 340 339 339 341 342 342
316 316 316 316 316 316 316 316 316 316 317 317 317 317 317 317 317 317 318 317 318 318 319 319 321 322 321 319 319 316 311 299 311 315 350 341 337 339 346 346 338 325 321 320 318 319 323 323 322 318 321 322 322 323 326 328 332 321 326 327 329 330 328 332 333 339 339 339 336 336 338 341 338 337 340 336 336 339 343 342 342 342 342 342 342 341 341 341
316 316 316 316 316 316 316 316 316 316 316 316 317 317 317 317 317 317 317 317 317 318 318 319 321 322 322 319 316 313 308 308 316 337 342 339 339 343 349 343 335 322 319 316 317 317 321 320 318 315 319 321 322 325 324 325 328 325 322 326 326 328 326 331 331 338 338 337 337 341 341 337 337 331 340 335 343 343 344 343 343 344 344 343 341 341 340 340
315 315 315 316 316 316 316 316 316 316 316 316 316 317 317 317 317 317 317 317 317 318 319 319 320 323 321 316 311 306 306 304 315 337 344 341 338 344 348 326 318 319 317 316 316 315 320 318 314 321 317 315 321 323 326 323 324 323 322 326 325 326 329 328 330 336 338 338 342 340 335 336 337 337 339 336 340 342 343 343 343 343 343 342 341 340 341 341
315 315 315 315 315 315 316 316 316 316 316 316 316 316 317 317 316 317 317 317 318 318 318 320 321 323 323 314 308 306 305 315 320 342 338 333 337 337 331 320 317 318 315 316 316 317 318 317 318 320 313 320 323 324 324 320 318 323 323 325 324 322 322 322 329 336 338 338 339 335 334 337 337 341 336 340 339 343 344 343 342 342 340 340 341 341 341 341
315 315 315 315 315 315 315 316 316 316 316 316 316 316 316 316 316 316 317 317 318 318 318 320 321 323 320 312 309 301 309 328 343 338 330 335 333 330 327 322 316 315 314 312 314 317 315 318 318 321 322 324 322 321 322 319 318 322 320 320 317 315 324 323 329 335 338 338 338 333 333 335 339 335 329 339 341 342 341 340 342 340 339 340 341 341 341 342
315 315 315 315 315 315 315 315 316 316 316 316 315 315 315 316 316 316 317 318 318 318 319 321 322 321 312 311 305 304 316 336 342 331 334 334 331 325 322 319 317 315 314 311 314 317 316 319 319 320 322 321 319 317 317 317 317 315 315 314 314 331 332 333 333 336 337 334 337 336 334 335 337 334 332 338 340 341 339 339 340 340 339 340 341 341 342 342
315 315 315 315 315 315 315 315 315 316 316 315 315 315 315 315 315 316 316 317 318 318 319 321 324 319 314 310 305 310 323 336 334 329 332 329 325 325 322 319 317 315 313 311 312 314 317 320 319 318 313 318 316 316 316 316 314 315 314 311 315 329 330 333 332 334 335 333 336 337 332 329 331 329 336 340 340 340 339 339 339 339 339 340 341 341 342 342
315 315 315 314 314 315 315 315 315 315 315 315 314 314 315 315 315 315 316 316 317 318 320 322 324 318 314 307 310 316 325 338 330 328 326 327 326 327 323 318 317 316 316 313 311 313 313 318 318 317 315 315 315 314 314 316 315 315 312 310 312 318 324 332 336 336 333 334 336 334 317 323 329 333 336 341 339 339 337 337 338 338 338 339 340 340 341 343
315 315 314 314 314 315 315 315 315 315 314 314 314 313 314 315 316 317 316 316 318 319 321 324 322 317 312 307 314 319 320 335 330 325 324 327 323 324 325 320 319 319 317 316 314 314 312 314 316 315 316 314 313 317 314 314 312 311 309 314 311 310 313 330 333 334 329 335 335 334 317 320 326 334 338 340 340 337 335 337 337 338 338 338 339 340 340 342
314 315 315 314 314 315 315 314 314 314 314 313 313 312 313 316 319 318 318 318 319 322 324 325 320 316 311 312 320 326 334 336 327 324 329 322 323 321 323 321 318 319 317 317 316 315 314 313 313 313 313 316 316 313 312 312 310 309 308 306 310 310 317 327 334 333 327 331 336 330 320 321 325 332 338 340 339 337 335 336 337 337 337 338 338 339 340 341
315 314 315 315 314 314 314 314 314 314 314 313 311 312 315 320 321 320 320 320 323 326 324 317 317 316 311 307 321 337 323 317 322 331 332 328 323 321 324 321 319 318 318 316 316 316 314 313 312 313 314 314 313 311 311 310 309 307 307 304 304 312 311 324 330 334 332 331 333 329 320 324 324 332 337 339 337 337 336 336 337 338 337 337 337 338 340 341
314 314 314 314 314 314 314 313 313 313 313 312 311 312 317 323 322 323 324 325 325 326 321 316 318 317 304 314 321 315 311 315 318 330 331 331 326 325 322 319 317 316 317 317 316 313 312 310 309 313 312 311 312 311 308 306 305 306 306 305 303 306 309 310 327 333 332 331 326 330 325 324 326 333 337 337 337 336 335 335 336 337 337 338 338 338 339 340
314 314 314 314 314 314 314 313 313 313 312 311 310 311 315 322 324 324 324 324 325 323 322 319 318 308 303 309 306 310 313 313 311 324 330 330 328 324 322 318 317 316 315 312 313 309 309 306 309 310 311 311 309 309 306 303 305 305 305 304 302 303 310 314 315 328 330 330 326 327 326 326 329 332 335 336 337 335 335 335 336 336 337 337 337 337 339 340
314 314 314 314 314 314 314 313 312 312 311 310 311 314 317 321 316 320 317 319 309 307 301 308 305 301 296 305 312 312 313 315 309 322 322 324 325 320 320 320 317 313 308 307 306 307 307 308 308 307 307 309 308 308 309 305 308 306 304 304 304 302 302 308 317 324 330 326 324 325 323 325 328 329 334 336 337 335 335 336 336 337 337 337 337 337 338 339
315 314 314 314 314 313 313 313 312 310 310 308 310 316 313 306 303 304 311 313 306 304 306 307 312 311 310 309 308 312 314 306 307 305 321 322 321 317 317 317 314 314 307 303 304 306 308 304 303 304 308 310 310 310 311 308 308 306 306 304 304 304 305 306 307 309 332 326 324 325 326 326 327 330 332 335 337 335 334 334 334 335 335 336 337 337 337 339
314 314 314 314 314 313 313 312 311 310 309 307 307 307 303 301 298 297 302 304 306 308 307 307 310 308 306 308 310 308 304 305 304 306 319 323 319 315 309 313 311 305 305 306 304 309 310 304 304 308 310 311 311 311 309 306 306 307 306 305 304 304 303 307 307 311 327 322 319 325 325 325 327 330 331 335 335 333 334 333 334 334 335 336 337 337 337 339
314 314 314 313 313 313 313 312 310 309 308 305 307 307 306 308 309 308 305 300 304 304 305 306 305 306 309 310 312 309 305 302 303 304 309 315 313 307 303 310 308 303 307 306 308 304 302 301 306 310 313 312 309 307 307 307 305 306 307 305 304 305 305 306 306 305 319 322 316 322 320 321 324 328 331 333 333 335 336 336 335 335 334 335 336 337 338 338
314 314 314 314 313 312 311 311 309 308 308 308 309 307 308 312 313 312 308 302 300 303 303 302 303 303 305 306 306 310 302 301 300 302 308 309 306 305 305 307 307 307 307 306 301 301 299 303 309 313 311 310 307 307 306 305 306 306 305 305 304 305 303 301 304 313 320 319 310 314 314 315 322 328 330 333 334 335 338 338 338 338 335 334 335 336 337 337
314 314 314 313 312 311 311 309 308 308 309 307 308 310 312 313 313 308 304 300 298 304 302 304 304 304 303 303 307 306 302 301 301 301 318 308 304 304 305 307 306 307 305 305 304 302 303 308 313 311 311 311 308 306 307 307 306 305 306 306 305 304 305 304 303 305 313 318 319 315 310 310 314 315 322 329 334 334 336 337 337 338 338 338 338 338 338 337
314 314 314 313 311 311 309 308 308 308 309 308 309 313 313 314 314 311 304 301 298 300 304 303 304 304 306 305 304 303 300 300 301 303 316 309 305 305 304 308 308 305 307 307 306 305 306 309 312 310 309 310 309 306 307 308 305 306 305 306 307 306 306 304 304 305 304 303 308 310 301 303 315 318 319 325 329 331 335 335 335 336 336 337 336 336 338 338
314 314 314 312 312 310 308 306 308 308 308 309 311 313 313 313 313 312 304 295 292 297 302 297 302 301 304 301 302 301 302 299 302 304 311 311 318 307 306 305 307 302 304 306 307 306 307 308 311 309 309 308 309 308 308 308 306 304 305 308 307 307 306 306 304 304 300 298 306 310 300 299 311 312 320 324 326 328 333 333 334 336 336 335 336 337 337 336
314 314 313 312 311 308 308 306 308 308 307 308 313 313 313 313 315 307 301 292 289 296 295 299 299 301 304 301 301 301 293 296 305 306 306 308 308 307 304 303 303 305 307 308 304 301 306 306 306 308 307 307 306 306 306 308 306 303 307 307 308 307 305 305 305 304 303 304 305 304 304 300 301 313 320 325 325 327 329 332 333 335 336 335 336 336 337 337
314 313 312 310 309 308 308 307 308 308 309 311 313 313 313 314 311 309 298 285 284 301 294 298 300 305 303 301 302 300 298 301 299 302 305 306 310 305 305 303 304 304 304 305 296 304 306 303 305 304 305 305 305 307 307 309 306 306 307 307 306 307 307 306 305 304 302 301 300 303 311 303 305 313 325 325 322 324 326 329 332 335 336 337 337 337 337 338
313 312 311 310 309 307 309 308 308 309 311 314 314 313 313 312 308 302 293 284 295 296 305 296 306 302 302 302 300 299 300 301 299 301 305 306 306 303 303 301 301 300 301 306 301 301 301 305 307 308 306 304 306 308 309 308 305 308 308 306 307 306 305 306 305 303 301 299 297 303 308 301 303 310 319 324 320 317 319 321 328 334 336 337 337 337 338 339
313 311 311 310 308 308 308 307 306 312 313 315 313 313 312 310 305 294 288 281 297 290 298 299 299 296 299 297 297 299 299 299 300 302 303 300 303 305 301 302 300 302 302 301 304 302 299 303 307 302 303 304 304 306 309 309 309 309 306 305 304 304 304 304 303 303 299 295 298 302 308 305 299 307 310 312 312 317 321 323 324 329 335 336 338 339 338 338
311 310 309 309 309 311 309 308 311 313 314 315 315 309 310 307 296 290 283 289 298 296 299 297 296 300 297 296 294 297 298 298 299 300 299 302 302 302 302 300 303 299 298 298 300 299 300 302 301 300 304 301 301 301 305 309 309 308 305 304 303 301 303 303 301 302 295 293 300 301 305 308 297 303 311 314 318 322 321 321 323 324 328 335 337 338 339 339
309 308 309 309 310 311 308 310 309 314 316 316 312 310 304 292 296 287 286 301 288 293 294 295 297 296 296 297 295 295 296 297 298 298 296 296 296 296 295 294 293 294 292 295 295 299 297 298 298 299 309 301 298 300 301 305 306 306 304 303 298 295 297 293 296 293 293 294 299 298 302 305 303 307 310 313 318 322 323 323 323 324 326 331 336 338 339 340
308 307 306 309 311 310 311 313 314 315 317 314 310 307 298 292 283 291 291 294 289 296 294 298 295 295 296 297 294 296 298 294 297 297 297 297 296 294 296 296 295 293 292 295 294 295 295 298 298 298 300 302 300 298 298 298 303 303 301 300 296 292 291 289 293 295 295 298 299 299 301 300 306 307 311 310 316 322 323 324 326 326 327 330 335 338 338 340
307 307 312 311 312 313 315 316 316 315 314 314 308 300 296 288 286 297 292 293 292 297 297 294 295 295 296 293 293 294 294 296 296 296 297 294 295 294 296 297 297 295 296 294 293 294 291 291 295 296 295 300 299 298 298 299 301 302 305 302 299 298 293 289 291 289 292 296 297 298 299 297 302 302 310 312 315 322 324 324 327 328 328 331 334 337 338 339
307 308 312 312 311 314 314 315 315 315 308 305 300 296 288 286 291 289 290 293 295 296 294 295 293 294 293 294 294 296 296 293 295 296 295 295 292 293 292 293 297 296 294 293 292 294 291 292 296 298 298 299 297 299 299 297 300 302 302 304 300 298 303 294 297 296 296 295 294 296 297 304 307 310 313 315 317 322 324 323 325 326 328 329 330 333 336 338
309 315 312 316 316 316 317 316 315 314 307 302 297 291 287 289 288 292 292 297 295 292 293 295 295 293 291 293 294 295 297 295 293 294 293 294 294 293 295 295 295 296 294 293 293 291 294 291 296 297 299 299 298 300 299 300 295 299 300 297 300 301 302 298 297 297 298 298 295 300 300 304 308 308 310 313 316 320 322 322 323 324 326 327 327 328 330 332
316 316 314 313 311 315 318 317 316 310 308 302 295 289 292 293 294 293 297 293 294 294 293 291 289 290 290 290 292 293 295 296 293 294 291 293 293 294 294 296 296 298 296 295 293 294 292 291 296 296 295 300 301 300 300 300 299 300 297 299 301 303 302 300 293 296 295 292 295 300 297 298 300 299 310 313 315 318 320 320 321 323 324 324 326 327 329 331
311 313 314 309 310 317 318 317 313 308 306 300 293 294 296 292 297 295 296 295 295 294 292 291 290 292 289 291 290 292 294 293 292 293 290 293 289 296 295 294 298 298 298 298 295 294 295 291 294 295 295 298 301 299 299 301 301 299 297 300 298 295 295 299 298 290 290 291 294 296 297 297 300 302 308 310 313 316 318 319 319 320 321 323 324 326 329 331
310 308 306 309 313 316 319 317 309 309 302 296 294 292 295 295 298 296 297 296 295 293 292 291 291 292 292 290 291 293 294 291 291 291 290 291 289 296 295 295 296 300 300 298 296 297 296 291 292 297 296 296 298 298 292 294 300 299 300 299 298 299 302 297 298 299 299 293 293 293 297 294 302 305 308 312 315 316 318 318 317 319 320 322 323 325 327 329
312 310 302 311 313 313 316 315 306 304 300 292 294 293 297 294 297 299 299 298 294 294 292 292 293 292 293 291 292 291 293 293 293 291 292 292 291 296 295 298 295 297 299 298 297 296 294 296 290 294 298 297 292 294 291 293 292 296 298 295 297 297 297 299 299 297 296 295 295 294 292 297 302 308 311 314 316 317 318 317 317 319 320 322 323 324 325 328
306 305 304 313 313 312 311 308 302 297 295 296 296 295 298 295 297 298 300 299 298 299 296 294 293 291 291 293 292 294 292 293 293 292 292 292 293 291 297 296 296 296 299 298 297 298 296 294 291 292 293 291 291 295 294 294 295 294 294 291 292 294 296 294 293 298 296 297 293 295 292 299 302 310 314 315 317 317 318 319 318 319 320 322 323 324 325 326
308 299 302 312 313 311 307 298 298 299 296 294 293 295 296 303 297 297 299 299 298 297 299 297 296 295 294 293 293 293 293 292 293 293 293 292 293 294 296 298 297 298 296 294 294 298 296 296 294 290 291 292 293 295 298 296 296 296 296 292 295 294 295 297 292 293 296 295 298 300 297 296 303 309 315 316 317 317 317 318 318 319 320 322 323 324 326 327
306 301 311 314 312 308 303 296 300 298 295 296 298 298 297 297 295 297 297 298 296 297 297 296 294 294 295 295 294 293 294 291 292 291 293 293 293 296 297 298 299 300 299 297 298 297 304 294 291 291 294 294 296 297 298 298 296 295 296 296 295 292 292 293 294 296 296 295 297 297 296 295 300 311 316 316 318 317 317 316 317 318 319 321 322 323 325 326
309 305 307 312 312 308 302 294 293 295 296 298 298 296 298 297 297 296 296 297 296 296 295 295 296 297 294 296 295 292 294 290 293 293 292 295 293 298 297 297 301 299 300 296 296 297 292 293 294 289 289 291 293 295 294 296 297 293 293 295 295 296 295 294 297 298 294 291 292 297 291 294 298 311 315 316 316 315 314 315 316 316 318 319 321 323 324 327
307 307 310 310 311 308 298 298 297 295 295 295 295 294 296 296 297 296 296 296 298 296 296 294 295 297 295 296 295 296 295 294 291 294 294 294 294 298 297 297 300 301 302 305 304 301 295 291 292 287 285 283 284 285 288 290 291 293 294 294 295 294 293 295 294 295 291 292 294 296 293 295 300 311 312 314 314 314 315 315 316 316 317 317 320 321 323 324
302 298 301 303 306 304 301 303 300 298 296 297 295 294 295 294 297 298 298 296 298 298 298 297 297 298 296 296 294 293 293 296 294 293 294 293 295 296 296 297 297 301 304 306 303 301 294 294 292 293 290 289 291 290 291 294 293 290 291 292 293 295 295 295 296 294 291 293 293 293 294 295 300 307 310 311 313 312 312 313 313 314 315 317 319 321 321 322
304 299 298 297 303 301 299 301 299 299 296 298 294 294 293 294 295 296 299 295 297 297 297 297 296 294 294 295 292 292 294 293 295 294 293 293 294 295 298 297 298 302 305 301 303 299 296 292 292 293 291 291 292 291 292 293 290 291 290 291 293 293 294 294 293 291 295 294 289 295 297 295 299 306 309 310 312 312 312 312 313 314 314 315 316 319 322 321
300 300 302 303 295 293 297 296 299 299 298 298 295 296 293 293 294 293 297 297 297 299 295 297 298 297 296 294 294 291 292 292 294 291 294 294 294 296 295 297 296 300 301 297 301 297 293 289 291 292 290 291 292 292 293 292 291 291 291 291 291 292 293 291 292 292 293 293 291 294 296 298 303 306 309 310 311 311 311 312 313 314 315 316 316 316 317 318
305 304 303 304 298 297 297 299 299 299 299 300 297 296 294 294 292 294 293 295 297 296 297 292 293 296 296 297 296 292 294 289 289 293 293 293 293 294 292 295 296 299 298 297 298 299 295 290 291 292 290 291 292 292 292 291 291 290 290 291 292 292 292 292 292 292 293 294 294 297 299 301 305 307 310 310 312 312 312 314 314 314 313 314 314 315 315 317
303 302 299 302 304 302 301 298 298 298 296 299 295 295 295 294 293 295 296 295 293 294 298 294 295 296 297 297 298 293 293 295 294 291 294 294 292 294 292 293 293 298 298 295 297 297 295 291 292 291 290 289 291 292 292 291 291 289 290 291 291 291 292 292 291 293 295 294 296 299 301 301 307 311 310 311 313 313 313 312 312 313 313 313 313 313 314 315
306 307 308 305 298 299 303 298 298 298 296 298 295 296 297 295 294 296 296 298 295 295 296 295 296 296 297 297 296 295 297 298 297 296 297 296 291 295 294 294 296 294 296 296 296 296 296 292 292 291 287 287 289 290 290 291 290 289 290 291 291 290 290 292 292 293 293 293 296 297 299 300 306 310 311 311 312 312 311 312 312 312 313 313 312 312 313 314
309 307 306 307 298 299 296 297 296 297 294 297 298 297 296 296 298 297 295 299 300 299 298 297 297 296 295 295 294 296 298 298 298 299 300 298 298 298 299 297 297 296 296 295 297 294 294 292 289 289 286 286 290 290 290 290 288 287 288 290 291 292 293 293 294 295 295 296 294 293 299 306 307 310 309 309 309 310 311 311 312 313 314 313 313 313 313 314
Wind_Speed
17 17 17 17 18 18 18 18 18 18 19 19 18 18 17 16 16 16 16 15 15 14 13 13 12 10 7 5 4 4 2 3 2 2 4 15 7 6 10 3 15 11 15 14 14 14 9 8 9 7 7 5 4 5 3 5 3 1 1 1 1 1 2 3 3 2 2 6 8 9 6 7 8 5 5 7 8 8 8 7 8 9 8 10 16 17 18 19
17 17 17 17 18 18 18 18 18 18 19 19 19 19 17 17 17 17 16 15 15 14 13 12 11 9 7 4 3 2 1 2 5 6 18 4 11 11 13 9 15 14 16 13 17 13 15 9 9 11 8 5 2 4 5 3 4 3 1 2 1 2 1 3 4 3 3 4 10 10 6 7 7 10 7 7 10 10 9 8 9 12 13 15 18 19 18 18
18 17 17 18 18 18 19 19 19 18 18 19 19 19 18 18 17 17 16 15 15 14 12 11 10 9 4 3 2 3 2 4 4 9 11 15 11 15 12 9 16 17 16 13 11 12 13 15 12 12 6 5 3 5 5 3 4 5 4 2 3 3 5 5 5 3 3 7 10 11 7 7 8 7 6 8 12 11 10 11 10 12 14 17 19 19 19 18
17 18 18 17 18 18 19 19 19 19 18 18 18 18 18 19 18 18 16 16 15 14 12 10 9 7 4 2 3 3 2 3 3 2 1 9 17 16 11 12 18 17 6 6 8 7 8 11 11 9 7 5 4 3 6 5 4 3 5 4 0 2 4 2 4 0 2 8 10 10 8 8 9 6 8 10 10 10 7 10 13 16 18 19 20 21 19 19
18 17 18 18 18 19 19 19 20 19 19 19 18 18 20 19 19 18 17 16 15 13 11 10 8 6 2 1 3 2 2 3 3 3 2 13 17 15 11 15 19 13 9 9 10 10 13 14 11 4 5 6 5 5 5 5 5 1 6 6 6 5 8 4 3 1 3 6 10 9 10 8 7 5 8 13 7 7 9 10 11 17 19 21 22 20 18 18
18 18 18 18 18 19 19 19 19 20 19 20 19 19 20 20 19 18 17 16 14 13 11 9 8 5 3 4 2 3 2 1 2 4 6 15 16 15 12 15 15 12 13 13 9 11 13 9 11 7 6 6 8 7 3 7 6 6 6 9 9 8 9 4 2 4 6 7 10 11 8 8 11 7 8 11 2 3 6 10 14 17 19 20 19 20 19 19
18 17 17 18 19 19 19 20 20 20 20 20 21 20 20 20 19 18 18 16 14 12 10 7 6 6 4 2 2 3 1 6 3 4 14 15 15 14 14 16 14 13 13 12 11 12 12 12 9 9 7 5 6 8 3 5 7 7 6 4 8 5 9 8 6 6 6 10 10 6 9 9 10 8 8 9 3 4 8 10 13 15 16 18 19 18 19 19
18 18 18 19 19 19 20 20 20 20 20 20 21 21 22 21 20 20 18 15 13 12 8 6 4 3 6 2 2 1 1 4 4 4 14 16 15 15 16 10 10 12 14 13 14 13 14 13 11 7 6 8 4 9 4 4 5 7 8 7 7 6 8 7 5 7 7 5 7 9 10 9 8 3 7 9 5 7 10 12 14 16 16 17 17 19 19 18
19 18 19 18 19 19 20 20 20 21 20 20 21 23 23 22 20 19 18 15 12 10 9 6 5 5 6 4 1 2 2 2 2 10 14 15 13 11 13 9 6 14 9 8 8 12 14 9 8 8 4 7 4 10 5 3 5 9 11 10 10 12 12 6 5 9 9 5 8 9 7 8 7 5 7 8 6 8 11 13 15 16 16 17 17 18 18 18
19 19 18 19 19 19 19 20 21 21 21 22 21 23 23 23 21 20 18 15 12 9 7 6 5 5 3 3 2 1 2 2 5 10 12 14 12 12 4 9 9 11 12 6 7 13 11 10 8 5 4 3 5 4 3 6 2 1 6 8 10 12 10 4 8 8 8 6 10 9 8 8 6 5 4 8 7 10 13 14 15 16 17 16 15 16 16 17
20 19 19 19 20 19 20 21 21 21 23 22 24 24 23 24 22 19 17 15 11 9 7 6 6 7 3 3 2 2 2 2 4 8 12 14 13 12 10 10 10 10 10 6 9 10 4 10 3 4 2 1 6 3 4 2 5 7 7 8 6 3 4 3 6 9 8 6 7 6 7 7 7 4 4 9 9 11 14 14 15 15 15 14 16 15 15 14
20 20 20 20 20 20 20 21 21 22 23 25 25 24 25 24 23 19 15 12 9 8 7 7 9 4 1 1 4 1 3 4 6 6 9 13 7 4 8 12 11 10 12 11 7 5 6 10 5 4 1 3 6 1 5 1 5 6 4 7 2 2 4 4 6 7 7 4 7 8 7 6 9 8 5 10 11 12 13 14 15 14 14 14 14 14 13 14
20 20 21 21 22 21 22 21 22 23 24 25 25 25 25 23 19 15 11 8 9 8 8 7 8 3 1 2 6 4 1 4 8 8 7 5 8 7 5 4 3 3 5 12 9 7 1 5 3 7 2 2 3 3 3 7 6 5 3 3 5 3 2 3 3 6 5 5 9 8 3 4 10 8 5 12 13 13 13 13 14 12 13 13 14 13 14 13
21 21 22 22 23 23 22 22 23 24 24 24 24 25 22 19 13 8 6 7 5 9 9 9 5 4 1 4 1 1 4 4 10 10 8 7 10 6 7 4 5 4 3 4 3 3 4 2 2 1 1 1 1 2 5 0 1 3 2 1 2 4 2 1 2 7 4 5 9 7 3 4 4 10 8 11 14 16 14 13 14 12 12 13 14 13 13 14
22 22 22 22 24 23 22 22 21 23 24 24 24 23 21 15 5 2 7 8 6 10 11 9 3 3 2 4 4 2 8 6 9 8 9 11 9 7 7 6 5 4 3 5 4 3 2 2 0 4 3 1 3 4 1 2 2 1 3 4 1 3 3 1 3 8 5 4 7 6 5 3 4 9 11 12 14 16 14 14 14 13 12 14 14 14 12 12
18 19 21 22 24 23 21 18 19 22 23 24 20 21 17 8 7 10 11 9 9 12 9 4 3 3 1 2 5 6 4 4 4 8 7 4 10 6 9 8 7 5 5 4 2 2 2 3 4 2 2 3 3 1 0 3 3 1 4 1 1 1 1 2 3 7 2 7 7 9 1 1 5 2 11 12 14 15 14 14 14 14 14 13 13 13 12 11
18 18 19 23 24 24 24 20 19 20 20 21 21 16 10 7 10 11 12 11 8 5 2 1 3 2 1 2 2 3 1 1 3 4 6 1 3 13 12 10 6 7 4 3 3 5 5 6 1 2 1 2 1 1 4 5 3 4 0 2 2 2 2 1 2 6 6 6 7 9 7 2 5 5 9 12 13 14 13 14 14 13 13 13 12 12 12 12
18 19 20 21 25 24 23 20 19 19 17 19 17 9 7 6 7 10 9 6 4 2 0 1 2 1 5 4 3 3 1 3 2 5 7 2 8 11 10 5 6 10 8 7 1 5 6 6 5 6 3 5 4 4 8 8 7 6 5 4 3 1 2 2 1 6 7 7 5 8 9 9 2 6 8 11 13 13 13 13 14 14 14 13 13 12 13 12
22 21 20 21 21 23 22 21 19 16 16 20 14 9 10 8 2 0 4 2 2 2 2 3 3 2 3 3 3 5 2 2 3 7 8 11 5 5 6 6 14 12 8 8 4 7 5 4 4 5 9 9 8 6 4 4 3 5 3 3 2 2 3 1 1 2 10 7 7 8 8 10 9 6 8 10 12 13 12 12 11 12 13 14 14 13 12 13
23 21 20 20 20 24 24 21 18 15 15 12 5 1 2 2 1 2 2 1 4 5 3 1 2 2 6 4 2 5 4 2 5 0 8 6 11 8 7 7 7 4 9 8 8 6 7 9 11 12 10 8 5 6 6 2 3 4 3 3 2 1 1 1 3 2 8 5 8 10 11 9 7 7 9 10 11 12 12 13 12 13 14 15 15 14 14 14
20 20 19 20 19 20 19 19 17 15 14 4 1 2 0 1 0 1 4 6 5 4 6 5 7 6 5 3 3 3 3 1 2 4 8 7 8 12 5 6 8 7 5 6 10 5 6 8 10 5 7 8 7 7 4 2 1 2 1 1 2 1 1 2 3 3 6 6 3 6 7 10 10 7 8 10 12 14 15 15 15 16 16 15 16 16 15 14
20 20 20 19 19 18 19 18 18 16 9 3 2 2 3 1 2 2 1 3 2 2 4 6 2 6 3 5 2 2 3 1 5 7 4 8 10 8 5 5 8 8 5 7 7 8 9 11 7 7 7 5 3 3 4 5 3 3 4 1 2 2 3 2 3 0 4 7 4 2 6 9 11 10 9 13 15 14 16 17 19 18 16 13 14 15 15 13
23 20 20 20 18 18 18 18 16 15 2 2 2 4 2 1 3 2 4 2 5 1 2 1 3 5 5 2 2 5 3 3 5 5 9 5 7 3 10 6 7 6 6 9 11 9 8 7 8 8 7 8 3 3 5 4 3 4 4 4 5 2 3 4 4 5 6 5 3 2 6 6 7 6 10 13 15 13 15 17 15 15 17 16 16 16 15 16
23 22 20 19 19 17 17 17 18 5 0 1 1 3 1 2 3 3 5 3 4 4 3 2 3 2 4 2 4 6 2 1 2 7 3 8 8 3 6 6 6 7 7 8 7 9 3 6 9 7 8 7 6 4 5 4 5 3 5 5 4 3 3 3 3 3 2 7 4 2 5 6 6 7 7 10 13 13 12 13 12 12 14 15 13 11 14 16
23 24 22 20 18 17 16 15 2 2 3 1 3 2 2 4 2 3 3 1 2 3 0 1 1 4 0 1 1 3 2 2 2 2 2 7 7 4 3 2 4 6 7 5 6 7 4 4 6 10 6 5 5 5 5 4 6 4 5 7 6 3 5 2 1 4 2 1 2 3 2 1 2 3 6 4 9 12 11 13 15 14 14 14 15 17 15 15
23 21 23 18 20 18 16 2 1 2 2 3 2 1 3 4 2 3 2 2 2 2 1 3 1 3 0 3 1 1 4 2 2 1 1 2 3 2 4 3 2 7 6 8 5 3 4 5 8 9 9 6 7 6 4 6 5 5 4 9 8 7 6 4 2 3 2 4 3 2 4 3 0 3 2 4 8 12 11 14 15 14 14 15 16 15 15 16
22 20 20 17 17 13 3 1 2 2 3 1 1 4 4 4 0 4 3 1 2 2 1 2 1 2 2 1 2 4 6 4 2 3 4 5 2 3 7 4 2 4 3 3 2 5 4 6 5 6 8 8 6 8 6 9 6 6 2 6 9 10 9 7 4 3 3 4 3 4 4 4 4 2 6 3 5 9 11 13 14 14 15 17 17 17 16 16
23 19 16 15 11 7 2 4 3 2 1 1 3 4 4 3 2 0 2 1 2 1 2 2 1 1 1 0 1 1 2 2 3 3 4 5 2 3 3 8 8 8 6 5 9 3 7 6 6 7 6 6 7 5 6 11 7 1 5 8 7 10 10 7 5 4 1 3 3 2 3 3 2 4 7 5 2 2 6 8 10 11 13 16 17 18 18 18
19 18 16 12 9 5 3 2 2 1 1 2 4 4 3 1 2 1 1 2 2 2 1 3 1 1 3 0 4 2 2 4 3 2 6 3 11 3 5 2 2 6 3 5 5 4 1 3 7 7 7 8 5 8 9 11 8 4 3 2 2 3 2 4 5 3 3 3 5 4 7 4 1 8 7 7 7 10 9 10 9 12 14 15 15 17 18 17
18 17 14 10 5 2 1 1 5 3 3 4 5 5 2 1 2 3 2 3 4 2 2 2 3 1 1 3 4 7 8 5 3 4 9 3 10 6 6 1 2 6 5 2 2 3 1 1 1 4 2 2 1 1 8 13 7 5 7 7 4 3 3 3 2 2 3 4 6 5 9 5 2 6 7 7 8 9 11 8 8 9 13 16 16 16 16 16
20 16 12 5 2 0 4 2 2 2 3 4 4 1 1 3 1 1 3 2 3 2 2 2 2 2 2 6 7 3 8 7 8 6 7 6 9 10 7 5 6 3 3 2 4 3 5 4 3 3 2 1 1 2 1 4 5 9 5 6 4 3 3 2 2 2 5 4 3 1 7 7 6 3 6 7 9 11 10 11 11 12 11 14 15 15 16 16
20 16 11 5 3 1 3 3 2 3 4 4 4 2 1 2 1 5 3 1 1 5 4 2 3 3 9 9 7 6 3 7 9 7 7 4 10 10 9 4 5 7 4 2 7 3 5 4 2 0 2 9 3 3 5 6 6 7 6 6 8 5 5 6 3 7 7 4 2 1 5 6 4 4 6 8 10 12 11 9 11 12 11 11 15 17 15 15
21 18 7 5 6 2 5 2 1 3 5 3 1 0 1 1 5 3 1 6 3 3 3 1 4 3 3 12 7 8 8 8 5 7 4 8 6 6 5 10 3 2 4 2 2 5 4 2 7 4 2 7 4 6 6 6 7 9 9 8 8 7 8 7 5 2 2 3 1 1 1 2 6 6 8 8 8 10 11 11 10 11 11 10 11 15 15 15
20 14 1 5 7 5 3 2 1 5 4 1 1 2 2 6 3 2 3 3 3 2 2 3 1 8 8 7 4 4 10 10 7 5 4 3 7 6 5 10 13 4 2 2 3 3 7 6 4 6 2 7 5 5 4 2 9 9 6 10 7 4 5 9 7 10 9 6 5 1 6 6 9 5 7 8 7 9 10 11 11 12 12 11 5 12 14 16
20 6 2 2 3 6 7 4 3 2 2 2 6 2 7 3 2 3 4 4 2 4 4 3 1 6 6 5 5 6 2 5 6 10 11 8 5 4 6 8 10 5 2 3 1 1 4 4 5 2 3 4 5 4 1 2 4 2 1 2 6 9 0 4 3 5 7 6 5 4 1 3 6 9 9 8 9 11 12 14 15 16 15 14 12 5 8 14
8 3 2 1 2 4 2 2 3 3 1 2 8 8 7 3 4 2 2 4 4 4 7 3 8 7 4 4 3 6 9 4 3 2 6 9 7 7 6 3 7 9 4 1 2 2 3 5 5 4 3 5 7 4 3 3 3 6 6 8 2 5 1 4 2 4 2 3 5 3 4 3 5 4 8 13 12 14 15 16 16 16 16 14 12 11 11 9
3 2 0 4 5 5 2 3 4 1 2 3 9 6 0 2 2 4 4 6 5 5 3 3 5 3 2 3 3 6 4 3 5 2 4 2 3 11 8 4 1 7 4 2 4 3 0 5 2 5 3 7 8 2 3 7 3 4 7 4 4 1 4 2 5 3 7 11 4 2 6 5 2 4 11 14 15 16 16 16 15 15 16 16 12 12 11 10
4 2 2 3 7 3 2 3 2 1 1 11 9 8 2 3 4 3 5 4 1 1 3 2 3 3 3 2 4 5 5 1 4 2 4 6 4 5 4 6 4 6 8 2 2 2 2 5 2 4 3 4 7 1 3 7 8 4 4 2 4 5 8 1 2 9 10 10 5 5 7 8 7 6 10 14 15 16 16 15 15 17 17 15 15 15 14 13
1 1 3 8 5 3 2 3 1 1 8 8 4 5 2 2 4 7 6 2 1 3 4 4 1 6 2 4 3 6 7 4 1 3 3 4 2 7 6 3 4 10 8 5 1 1 1 0 3 1 5 3 6 6 4 9 3 4 2 3 3 4 1 7 1 2 4 4 6 5 3 5 6 6 9 9 11 12 14 13 14 14 15 13 13 13 13 12
3 1 5 7 11 5 1 2 3 8 7 7 2 4 2 2 5 8 10 5 6 3 3 4 4 5 8 6 2 5 7 9 4 3 3 4 3 2 8 5 4 9 6 6 4 3 1 2 2 4 6 4 4 6 7 7 6 4 2 3 3 3 2 3 3 1 2 4 5 7 4 4 6 6 7 9 10 11 12 12 11 12 13 13 13 13 12 12
0 3 1 8 13 8 3 4 10 7 6 2 2 3 5 4 6 8 9 10 4 7 7 6 2 4 2 4 7 4 4 6 5 5 4 4 5 2 8 8 4 6 6 2 5 6 1 3 3 2 6 9 7 2 4 9 10 6 4 5 4 3 4 8 5 2 1 2 3 8 7 5 6 5 6 7 8 9 10 10 10 12 13 14 13 14 14 13
3 3 4 12 12 8 6 8 5 1 4 7 5 5 3 5 5 10 7 6 8 6 4 5 8 8 5 7 3 3 4 5 5 5 6 5 6 4 7 8 6 4 4 3 3 5 3 1 4 6 4 4 5 6 3 1 3 9 8 6 3 2 2 2 5 4 2 3 2 4 8 5 5 5 5 7 7 9 10 10 10 10 12 13 14 15 15 15
4 2 4 7 9 4 10 8 4 5 5 2 3 4 2 5 4 5 6 8 4 4 6 9 6 1 6 3 4 5 4 7 6 5 4 6 9 8 6 7 6 2 2 3 2 3 1 3 5 6 4 2 5 3 2 6 1 2 8 8 7 5 4 3 3 3 2 3 4 5 3 6 5 5 5 6 7 8 9 11 11 10 11 12 14 15 15 15
0 2 4 8 11 1 6 4 4 5 5 4 5 4 3 4 9 11 9 9 6 5 5 4 4 8 5 5 4 3 3 4 4 4 5 1 4 4 6 8 10 6 5 2 2 3 1 2 1 6 3 2 4 4 2 2 5 5 4 7 7 6 3 1 1 1 2 3 3 3 6 6 4 3 4 6 8 11 12 12 12 12 12 12 13 13 14 15
2 2 1 5 10 7 5 1 4 6 4 5 6 9 7 5 4 5 6 9 5 4 1 7 4 2 6 2 6 4 7 3 6 4 3 3 4 4 6 9 9 7 7 4 1 2 3 2 2 2 3 4 5 5 4 2 4 2 3 7 8 10 10 2 2 1 1 2 1 2 7 7 5 3 6 8 8 10 10 11 12 11 12 13 13 13 14 14
3 3 4 5 7 6 5 1 3 4 4 2 8 4 4 3 3 7 5 6 7 6 8 2 1 5 4 6 9 8 9 9 4 5 1 3 1 2 3 8 8 9 9 10 7 1 3 2 3 2 2 1 4 5 2 2 1 2 5 6 8 8 7 3 1 1 3 3 5 5 5 6 6 6 7 7 8 10 10 12 12 12 13 13 13 12 13 13
2 3 2 3 3 6 4 5 3 2 2 1 3 3 6 5 3 5 7 4 8 6 5 7 3 2 3 9 6 9 6 10 11 9 4 4 1 1 4 5 7 13 12 6 8 2 3 4 4 7 10 7 6 6 3 2 3 3 4 6 6 7 7 7 3 4 1 4 5 1 1 3 4 5 5 6 6 7 8 10 11 11 12 12 13 13 15 16
2 1 1 1 1 2 3 6 6 6 4 2 3 0 3 5 7 3 3 5 1 6 2 4 9 8 4 5 4 5 3 6 4 4 1 2 0 2 3 7 8 9 8 5 6 3 3 3 2 5 8 6 5 5 4 4 4 2 3 3 5 5 6 5 4 2 1 3 4 4 1 5 4 4 4 5 5 6 8 8 9 8 9 11 13 15 16 16
2 2 1 2 1 1 1 2 4 6 9 6 3 4 4 6 7 4 2 5 4 6 5 5 6 7 5 3 2 5 1 3 3 1 1 3 3 1 2 0 4 8 7 5 5 2 2 4 3 3 7 6 6 5 4 5 3 2 2 2 4 4 3 3 2 1 1 4 4 4 6 8 4 4 4 4 4 5 5 5 7 10 12 12 13 14 15 15
2 1 3 2 4 3 3 2 2 4 7 5 3 4 2 3 5 2 3 4 4 5 4 9 5 6 6 6 5 6 2 3 5 3 1 1 2 1 2 1 1 2 5 4 2 2 2 4 4 2 3 3 3 3 2 4 5 4 3 3 2 2 3 1 2 3 2 4 4 4 8 6 3 2 4 3 3 2 4 8 10 11 11 12 13 14 14 15
1 1 1 3 4 4 3 3 3 4 4 4 4 2 2 3 6 2 5 2 3 3 3 8 6 7 6 8 10 9 2 5 4 5 5 2 1 2 0 2 2 2 4 3 3 2 2 3 2 2 3 3 1 1 2 2 2 0 3 4 4 1 2 3 2 3 0 3 1 2 6 5 4 3 3 3 4 5 7 8 9 9 11 12 13 13 14 14
1 1 1 2 3 4 2 1 1 1 5 2 2 1 1 1 1 1 5 3 5 3 1 5 1 5 5 7 7 5 2 0 2 2 1 3 3 3 1 2 0 2 1 2 2 2 2 4 4 3 3 3 3 2 4 2 3 3 1 3 3 2 2 1 0 1 1 2 2 4 3 5 4 1 3 2 3 6 8 8 8 8 10 10 12 13 13 13
Wind_Direction
348 347 345 344 343 340 337 337 338 335 333 333 333 333 332 332 331 329 327 327 329 332 330 329 328 326 325 312 308 301 323 328 276 210 232 242 178 197 165 149 164 191 145 127 127 133 134 133 132 161 150 169 123 172 166 217 245 325 207 287 290 328 281 27 8 298 26 164 167 171 162 137 136 153 129 131 126 125 131 108 93 83 98 121 121 130 140 147
348 346 345 343 342 339 336 335 336 334 332 332 330 330 330 330 329 327 324 324 327 329 331 328 328 329 321 310 307 341 337 283 272 244 234 167 191 173 184 162 166 164 143 142 155 149 139 149 142 160 149 153 138 161 171 194 201 243 308 245 356 198 359 301 336 297 204 167 165 170 166 165 153 149 172 157 151 148 136 121 121 101 110 118 127 136 146 151
347 346 344 342 340 337 335 334 335 333 331 331 328 326 326 327 326 324 323 322 323 327 330 329 324 327 326 297 312 70 300 264 250 248 266 213 171 181 186 165 167 161 168 162 160 150 151 154 150 153 159 140 179 173 196 175 195 214 255 251 239 220 293 293 299 267 258 138 161 169 166 183 155 166 167 167 159 166 155 149 142 134 135 139 138 146 151 156
346 345 343 341 340 338 334 334 333 331 330 328 326 324 323 324 323 321 320 320 318 323 328 326 320 328 316 284 249 166 284 261 246 315 292 159 168 171 180 165 160 161 121 105 127 114 99 123 146 157 140 173 152 186 182 187 221 138 224 232 35 141 323 24 352 336 167 167 155 163 158 179 173 166 178 148 152 184 169 164 159 153 150 148 149 152 156 159
344 344 342 340 339 337 334 334 331 330 327 326 323 322 321 320 320 318 318 315 316 319 322 321 315 317 326 282 114 220 264 273 93 239 61 150 158 161 167 157 148 147 140 120 113 123 141 145 150 147 166 166 157 181 232 197 227 268 244 262 267 270 286 305 334 145 136 146 151 156 167 184 152 170 183 171 178 184 186 166 150 150 152 153 155 157 159 162
343 342 341 339 338 336 333 332 329 327 325 323 322 321 318 317 316 315 313 312 311 314 316 316 308 304 245 147 158 179 264 24 3 339 112 141 145 146 153 133 131 128 131 141 133 140 134 148 154 156 167 168 177 189 159 208 194 246 243 253 256 260 272 294 258 164 150 153 161 169 170 138 173 182 193 190 322 63 145 150 147 150 155 155 154 157 163 165
343 339 338 338 337 334 332 330 328 325 323 321 319 318 316 314 313 310 309 307 305 306 307 310 304 274 157 146 204 283 296 291 312 80 120 135 133 137 143 132 131 139 144 125 137 147 154 154 180 167 158 159 184 203 164 196 200 246 272 272 278 266 260 255 258 175 186 170 175 156 145 160 175 190 186 198 56 119 133 139 143 143 149 153 156 163 165 167
340 338 337 336 335 332 331 329 326 324 321 320 318 316 314 311 310 307 305 301 300 298 300 295 283 84 143 200 233 257 345 268 27 121 130 128 128 137 141 123 131 141 151 150 153 153 153 159 175 143 175 181 167 194 169 212 192 231 255 267 275 282 255 257 231 186 177 162 144 150 163 170 178 186 168 193 130 137 141 140 140 143 148 160 159 164 167 168
338 337 336 335 334 332 330 327 325 322 320 319 317 315 312 309 307 305 300 296 294 294 286 276 257 228 193 271 238 294 222 271 297 147 139 130 127 122 133 132 162 147 139 140 155 147 156 177 148 180 182 183 154 198 186 226 211 218 248 273 287 288 295 283 199 183 166 150 158 159 165 161 169 130 190 183 154 145 143 141 146 149 155 161 165 167 169 171
338 337 335 334 333 331 329 326 325 322 321 318 318 315 310 306 305 301 295 289 288 281 273 261 226 197 181 231 186 229 69 14 118 148 136 125 120 131 142 139 150 132 135 143 135 156 181 166 168 182 175 160 169 164 176 214 17 30 277 278 284 299 306 290 186 165 158 155 168 166 158 163 169 197 188 186 155 152 148 148 153 157 163 165 164 170 173 172
337 335 334 333 331 331 330 326 324 322 321 320 319 314 309 306 302 296 289 284 279 268 254 236 214 156 203 247 226 168 1 135 127 142 139 133 136 144 152 158 151 143 134 140 157 171 120 154 184 127 187 173 175 171 212 208 331 295 290 290 272 313 31 56 137 142 153 141 172 156 136 162 172 220 230 174 157 164 155 154 159 165 166 167 167 170 174 175
335 335 334 331 332 332 330 327 325 323 322 322 319 314 311 306 299 291 282 275 264 244 230 223 189 169 248 231 242 188 4 88 131 145 140 143 135 118 148 158 168 146 146 156 169 181 160 160 174 191 120 149 189 311 235 312 296 289 296 290 320 335 53 72 130 153 177 125 172 143 124 181 190 213 186 162 158 168 160 158 164 169 168 169 169 172 177 178
335 334 333 332 331 331 330 328 326 325 324 323 320 317 313 307 297 288 269 255 239 220 207 196 173 192 215 221 226 224 96 121 125 131 125 102 96 88 106 90 83 126 161 152 164 191 157 151 181 178 92 246 144 229 360 292 288 276 221 283 278 271 91 89 103 155 174 133 169 178 213 199 200 193 156 159 162 165 162 166 169 171 172 172 179 180 181 180
334 332 332 331 332 331 330 328 327 327 326 324 324 319 312 306 297 276 233 207 173 187 182 182 156 172 235 250 284 204 207 123 123 140 148 138 111 96 120 112 104 106 68 98 120 167 156 42 118 130 9 240 102 311 274 340 247 246 84 241 310 289 77 133 179 158 181 143 180 208 249 73 142 183 154 167 165 167 169 171 174 174 176 181 184 182 182 184
333 331 330 331 331 330 329 327 328 327 328 328 326 323 317 315 306 179 151 158 164 157 159 131 151 193 202 273 284 280 127 139 145 170 168 155 126 115 132 141 120 111 78 117 144 196 134 150 165 193 194 176 263 284 283 289 44 318 224 202 147 273 81 108 172 176 185 151 197 201 247 294 43 175 159 166 172 171 172 174 176 179 180 184 186 188 186 185
327 328 328 329 330 330 328 329 327 329 329 328 328 322 320 19 86 115 124 129 150 149 147 137 174 251 294 290 107 124 156 171 179 183 190 183 148 132 145 132 112 113 158 85 83 135 155 178 202 194 218 199 237 283 306 184 165 62 256 87 249 256 48 182 172 191 198 149 186 214 273 54 81 124 159 167 173 177 175 176 179 180 184 182 188 191 190 184
329 325 326 329 330 331 329 327 327 328 328 327 329 320 326 76 92 106 115 124 135 148 213 134 152 190 247 65 158 209 174 160 105 126 173 297 109 126 126 128 141 126 138 111 70 124 144 186 137 204 274 255 76 321 189 201 161 182 56 228 44 271 163 237 100 206 179 182 182 213 247 100 55 140 159 168 177 178 180 180 181 181 186 187 184 187 189 191
329 328 328 326 330 330 329 325 324 328 328 326 322 292 302 34 87 103 92 97 123 185 229 276 196 235 247 261 217 115 104 287 123 115 128 88 132 136 129 138 132 138 137 133 1 159 159 172 190 204 180 202 203 197 204 194 180 167 169 183 150 110 287 358 308 151 183 194 209 197 236 251 203 125 169 175 180 182 184 181 184 184 187 188 192 190 191 193
330 329 327 324 326 329 327 323 322 329 332 325 306 273 248 278 285 127 96 147 179 162 210 165 182 230 116 132 320 280 215 154 109 150 140 137 151 116 81 96 135 143 149 161 150 161 171 151 182 192 204 194 198 201 200 60 132 140 96 103 92 168 138 170 65 153 191 179 207 199 225 236 224 171 170 181 184 188 187 186 186 190 192 195 196 195 194 195
329 326 326 322 324 325 323 320 322 329 339 337 356 17 207 192 199 210 180 183 222 251 321 294 232 341 287 254 269 307 253 119 158 16 133 134 142 122 92 132 124 144 154 171 150 191 171 170 186 197 200 173 162 194 214 128 72 108 106 121 82 356 207 268 269 257 199 212 219 214 231 249 245 201 181 182 183 192 192 189 189 193 194 197 198 199 198 197
325 326 325 320 319 320 314 320 322 326 336 289 278 224 52 153 269 290 320 268 240 253 251 240 217 249 286 341 287 353 24 341 36 137 153 151 142 144 131 164 157 157 184 138 142 127 208 192 200 163 130 156 180 201 178 122 256 233 189 208 143 249 200 71 9 35 198 221 205 218 241 251 250 221 193 178 184 196 196 194 196 199 197 197 196 197 198 199
328 326 323 317 318 317 318 318 321 323 335 151 213 145 115 98 330 5 247 308 298 236 225 258 14 274 283 256 257 124 146 337 127 96 108 175 159 189 155 196 173 170 132 152 125 153 191 208 157 141 152 141 96 160 178 208 177 186 248 200 261 199 284 2 30 240 202 215 270 177 235 249 247 234 197 187 195 202 198 194 198 198 197 201 199 198 197 195
327 324 319 320 318 319 319 316 317 321 294 205 137 115 83 9 327 291 214 247 268 239 239 181 225 251 280 266 271 166 165 182 150 162 159 166 160 226 150 183 186 134 150 175 175 163 183 205 148 151 138 140 111 134 141 142 179 192 188 218 225 78 258 149 58 40 149 210 322 266 252 263 263 241 214 205 205 208 202 200 199 194 194 196 201 196 193 194
324 324 322 320 322 320 319 320 309 280 329 20 276 78 65 358 337 155 180 290 324 312 202 210 238 241 237 290 169 160 166 131 179 161 144 169 165 132 169 171 140 154 176 186 192 177 155 138 150 143 160 172 165 158 182 206 206 177 226 234 241 203 228 302 72 353 193 234 277 286 272 263 251 246 223 218 211 212 205 200 197 193 199 202 208 203 200 196
324 325 325 324 321 324 318 316 315 14 320 242 243 231 303 311 284 237 251 291 187 258 133 162 196 237 204 110 114 204 160 97 265 25 133 159 122 155 180 106 173 181 159 167 165 185 132 116 144 155 151 166 160 176 204 213 231 198 206 228 240 222 248 170 12 324 275 208 157 233 288 216 120 239 251 206 196 211 200 195 201 194 190 195 205 207 205 205
325 323 325 323 324 327 309 280 53 351 280 148 118 89 331 318 298 214 201 40 45 4 237 145 261 138 334 192 167 167 146 75 353 333 77 13 0 162 135 163 283 181 145 161 178 205 177 134 169 164 172 174 201 222 179 208 233 233 205 195 214 221 230 229 213 282 237 234 84 279 282 284 287 306 293 200 201 205 196 204 206 197 192 195 203 204 202 201
325 323 324 324 328 336 300 75 15 274 167 179 261 333 330 311 116 159 264 215 95 14 341 29 245 101 262 39 174 163 184 112 201 53 51 5 244 355 195 146 159 59 133 133 162 193 152 148 148 151 156 175 186 217 177 201 211 226 119 193 202 202 209 214 206 235 276 339 254 216 243 270 301 49 1 325 215 207 205 211 213 205 197 199 203 203 203 202
323 323 323 323 327 341 293 336 309 172 37 27 349 331 319 305 156 189 230 168 66 263 29 211 321 304 311 78 340 336 48 44 156 79 64 339 231 144 238 177 191 158 150 173 201 89 177 165 178 155 169 183 212 210 159 196 211 217 166 170 190 207 211 197 208 226 354 321 266 211 172 235 231 38 14 14 300 323 270 254 238 227 213 208 206 205 204 203
322 322 323 323 328 357 248 233 302 196 203 338 319 326 329 280 190 211 257 76 42 343 143 71 352 167 352 118 47 8 124 19 74 15 326 220 29 242 195 118 69 108 38 207 202 135 252 213 185 190 200 220 194 205 177 184 207 197 167 99 113 122 131 189 197 166 150 214 230 183 199 244 136 27 24 30 22 357 343 322 278 243 226 216 215 211 207 204
321 321 321 322 318 135 194 233 237 268 320 309 325 311 249 167 209 208 212 79 331 97 282 280 281 231 319 119 50 13 61 12 52 350 41 76 7 52 56 319 174 139 145 46 252 59 34 345 221 72 201 329 282 243 186 184 198 99 133 172 135 117 108 97 64 138 145 220 232 214 198 242 247 43 29 12 3 335 331 323 313 264 226 220 217 215 212 207
321 320 318 297 211 153 165 232 223 317 291 313 304 288 149 48 239 332 65 36 311 19 244 359 8 329 110 139 114 358 65 16 23 11 55 4 30 42 13 168 19 139 104 55 158 15 107 125 147 89 337 355 185 154 51 219 145 156 170 182 158 126 147 175 121 162 216 210 203 182 211 192 245 87 26 9 357 356 346 331 331 322 268 220 212 212 213 211
323 319 311 219 219 156 218 334 300 317 316 316 309 58 191 185 141 43 71 135 127 7 351 340 66 77 78 73 64 19 87 71 26 51 62 22 61 45 19 41 339 167 181 167 167 140 111 66 323 216 106 22 351 198 116 158 182 194 172 186 192 143 174 174 160 196 206 192 94 35 171 171 75 47 10 8 11 3 355 343 335 333 317 249 215 209 207 208
322 325 312 202 190 225 236 271 335 309 313 289 70 94 181 107 69 2 311 336 76 321 39 270 350 34 120 84 62 57 38 68 309 48 67 46 72 81 73 40 353 298 190 154 154 172 117 172 30 28 215 15 331 217 155 160 180 192 194 186 190 169 184 182 166 11 151 231 230 214 276 50 122 88 16 10 5 5 360 355 350 346 343 326 233 206 206 205
320 323 203 192 204 232 263 236 274 331 333 122 143 128 151 66 58 323 322 348 346 3 329 15 338 79 34 82 27 292 72 36 55 38 37 100 39 33 22 35 20 17 5 133 190 191 171 175 62 352 83 343 17 12 358 3 164 185 184 186 199 194 182 178 175 182 189 164 150 51 206 151 171 84 39 18 2 360 5 4 5 7 3 355 288 213 207 209
317 307 188 129 241 244 239 236 237 247 216 147 88 64 75 56 269 338 328 347 312 319 17 2 97 87 77 74 356 38 6 93 10 58 45 58 31 35 1 355 10 7 310 194 72 249 3 58 32 311 304 316 13 350 304 173 133 119 132 358 202 203 20 224 151 191 160 140 142 176 215 24 104 138 48 19 13 16 10 12 11 12 10 11 23 6 229 213
309 148 220 258 290 7 175 156 159 191 198 238 73 48 56 28 4 337 352 329 280 329 331 342 39 84 69 95 29 41 25 64 5 66 59 57 60 37 353 347 5 4 360 32 29 149 173 100 343 343 176 31 11 320 44 287 201 155 167 194 177 7 271 109 82 12 48 177 161 73 127 104 96 218 14 9 10 16 15 14 15 12 9 16 18 2 357 331
31 286 147 320 354 356 117 147 140 238 298 79 78 69 184 125 326 284 299 317 305 311 289 143 9 15 72 54 48 359 39 51 44 18 71 320 67 10 354 332 310 1 14 297 88 355 230 105 57 21 38 28 355 271 83 49 330 135 194 129 68 329 354 276 180 154 190 195 133 109 103 56 236 159 359 5 10 14 12 11 12 13 13 15 7 0 352 331
345 26 214 356 352 342 156 153 183 38 198 72 73 99 261 38 34 322 319 301 256 287 70 64 76 310 84 109 51 352 337 69 11 18 85 4 96 320 342 340 308 12 351 314 302 95 299 133 81 64 299 348 350 160 174 53 25 2 61 42 226 151 192 11 181 178 176 194 134 104 96 75 19 0 350 2 4 4 6 4 10 15 14 10 2 358 350 343
229 23 38 4 354 21 165 176 297 278 74 64 42 92 37 47 341 13 338 268 66 244 51 22 101 30 59 80 133 47 10 106 20 52 120 17 72 16 21 322 324 352 356 342 203 73 315 120 136 64 1 303 29 15 29 328 18 82 208 82 25 299 322 169 253 351 218 156 154 128 184 80 28 1 350 4 4 9 8 8 12 13 13 9 9 359 354 348
6 72 26 350 352 360 162 210 39 40 57 68 51 57 304 17 352 354 4 4 29 356 74 70 33 102 56 67 37 90 42 52 67 67 57 8 101 97 18 353 332 317 343 357 62 278 59 299 89 7 351 226 42 23 47 8 352 25 67 31 29 8 304 342 60 360 268 160 184 139 142 75 42 360 3 11 10 16 19 15 11 12 12 14 12 10 2 360
265 74 311 347 345 338 240 41 44 29 65 126 64 32 16 18 354 7 2 8 82 28 66 70 25 72 118 118 68 13 85 48 54 68 56 72 4 115 30 359 313 318 329 259 33 13 6 17 85 7 45 58 102 45 24 31 33 38 40 53 351 337 154 186 164 131 332 222 163 172 117 88 49 8 4 12 7 7 9 12 13 14 14 14 14 16 15 12
49 48 340 345 342 318 80 58 32 70 66 53 44 357 9 8 8 0 3 12 47 66 31 81 50 68 55 61 67 42 92 67 36 81 39 78 35 37 347 334 306 287 333 48 4 4 9 60 66 77 59 93 114 101 33 338 10 51 45 34 343 20 328 296 189 160 130 50 11 79 116 95 40 9 9 19 15 14 12 9 11 12 15 16 15 16 17 20
18 58 287 304 351 341 74 63 31 58 59 30 235 52 351 56 2 335 13 3 37 21 43 47 15 62 33 54 75 79 52 80 14 72 115 81 62 19 318 322 325 328 328 47 222 26 276 33 79 71 88 119 194 247 330 24 291 221 39 27 24 29 352 8 16 45 98 138 158 134 93 117 70 11 23 24 34 35 30 23 16 18 15 15 16 18 19 19
188 11 347 351 348 290 67 85 89 78 78 51 59 63 21 69 30 20 29 15 28 23 53 41 62 40 82 36 69 75 304 112 34 73 93 319 68 334 351 7 354 49 357 39 339 19 267 52 331 119 136 172 200 193 162 127 48 51 21 13 9 18 40 26 44 253 109 25 347 173 154 147 71 11 42 32 37 39 30 25 24 20 14 13 14 18 20 21
134 228 270 315 359 34 78 32 111 95 79 65 57 38 10 58 27 41 25 39 18 42 192 49 17 13 67 42 81 78 39 19 120 13 81 63 77 315 2 4 5 39 35 36 325 326 57 52 311 178 165 174 190 197 167 162 26 23 24 358 20 17 8 308 163 58 111 74 276 92 109 92 95 57 56 40 31 34 29 22 23 24 18 15 13 16 18 22
17 74 331 13 10 44 75 19 45 90 95 90 63 26 11 54 46 20 5 61 32 45 52 122 55 49 65 74 57 42 53 30 67 148 166 107 70 39 343 338 13 19 24 49 34 28 96 78 33 335 304 316 54 70 60 310 22 63 12 16 8 2 10 2 26 80 77 143 102 38 56 108 63 45 48 42 36 27 19 20 18 14 14 17 18 18 22 23
133 58 348 15 302 56 57 43 37 1 92 310 75 350 32 13 306 42 2 70 15 16 63 40 351 57 64 86 85 75 35 79 66 81 30 95 61 349 305 336 3 11 2 32 4 82 96 96 36 57 66 80 90 78 74 24 68 61 360 8 358 12 357 15 32 77 357 159 99 100 328 76 54 43 39 39 36 35 29 21 16 15 15 14 12 16 23 26
67 164 200 319 328 1 3 39 7 82 72 103 85 143 29 47 43 47 23 67 219 15 40 29 37 30 35 77 120 93 62 72 46 81 119 57 48 36 52 18 22 349 7 48 4 61 80 101 81 92 88 88 76 81 60 74 55 31 349 334 347 351 3 32 47 46 350 350 94 123 148 99 75 53 45 50 42 44 34 21 17 4 13 18 17 20 22 22
55 116 83 309 95 4 333 330 0 60 66 44 93 37 68 57 67 38 8 359 32 28 358 92 29 24 38 8 54 99 352 106 74 28 82 65 40 12 91 306 42 7 21 46 40 25 105 67 71 79 109 92 69 57 40 32 27 330 322 323 315 320 342 1 28 95 128 83 81 91 107 95 76 77 62 49 35 37 31 22 25 22 22 17 21 23 21 21
70 39 99 19 75 82 5 15 20 36 68 354 76 8 45 26 74 46 43 17 88 55 346 79 64 53 44 69 75 84 85 52 114 121 201 157 114 341 79 347 331 26 14 41 2 45 284 108 116 121 107 90 58 41 28 14 357 331 356 337 313 312 319 19 92 97 115 104 89 106 128 111 98 86 88 55 24 15 29 33 31 25 15 18 23 21 18 16
48 337 334 112 69 4 347 12 37 32 80 25 70 66 82 39 86 42 78 5 22 76 93 106 100 89 46 74 84 93 76 100 109 98 169 195 79 148 323 138 222 61 8 34 18 28 1 117 44 150 147 138 73 350 332 349 339 156 58 48 43 92 149 87 117 59 307 121 69 155 160 135 131 139 114 60 51 33 34 30 31 25 18 16 17 18 15 12
94 316 293 109 88 347 19 326 330 192 64 15 41 50 117 85 128 251 96 43 54 49 82 118 113 89 81 68 60 35 17 209 18 43 101 52 78 86 351 70 102 344 57 49 333 42 22 137 154 170 177 142 145 271 306 298 180 188 157 50 2 104 61 3 91 105 62 11 193 210 119 99 109 142 159 80 35 34 29 25 19 20 22 18 14 10 9 7